Content
SEND FEEDBACK

Daily
Averages
Monthly
Summary
Canada

STEVESTON, BRITISH COLUMBIA


Home > North America > Canada > British Columbia
Elevation: 7 feet     Latitude: 49 10N     Longitude: 123 10W

WEATHER
 
SELECT A DAY
Number of Records: 249,307;   Date Range: 5/15/97 - 7/28/14
 
SHARE

PRINT THIS DATA

[ ← Previous Day ]
WEATHER ALMANAC - OCTOBER 8, 2013
[ Next Day → ]
[ °C ]   °F
We're sorry. There is no daily almanac available for Steveston, British Columbia on October 8, 2013.
WEATHER BY HOUR - OCTOBER 8, 2013
[ °C ]   °F
Local TimeTemperatureDewpointHumidityBarometerVisibilityWind DirectionWind SpeedGust SpeedPrecipitationEventsConditions
12:35 AM53.6 °F46.4 °F77 %29.95 in10.0 miCalmOvercast
12:55 AM51.8 °F48.2 °F88 %29.96 in10.0 miWest (270°)6.9 mphOvercast
1:15 AM51.8 °F48.2 °F88 %29.96 in10.0 miSW (220°)5.8 mphOvercast
1:35 AM51.8 °F48.2 °F88 %29.96 in9.0 miCalmOvercast
1:55 AM51.8 °F48.2 °F88 %29.96 in10.0 miSW (220°)4.6 mphOvercast
2:15 AM50.0 °F48.2 °F94 %29.96 in8.0 miSSW (200°)4.6 mphRainLight Rain
2:35 AM50.0 °F48.2 °F94 %29.96 in5.0 miSSW (210°)3.5 mphRainLight Rain
2:55 AM50.0 °F48.2 °F94 %29.96 in10.0 miSSW (200°)4.6 mphOvercast
3:15 AM50.0 °F48.2 °F94 %29.96 in6.0 miSSW (200°)5.8 mphRainLight Rain
3:35 AM50.0 °F48.2 °F94 %29.96 in5.0 miSSW (210°)4.6 mphRainLight Rain
3:55 AM48.2 °F48.2 °F100 %29.96 in3.0 miCalm0.01 inRainRain
4:15 AM48.2 °F48.2 °F100 %29.95 in6.0 miSSW (210°)4.6 mphRainLight Rain
4:35 AM48.2 °F48.2 °F100 %29.95 in10.0 miCalmOvercast
4:55 AM48.2 °F48.2 °F100 %29.95 in10.0 miCalmOvercast
5:15 AM48.2 °F48.2 °F100 %29.94 in10.0 miCalmOvercast
5:35 AM48.2 °F48.2 °F100 %29.94 in10.0 miCalmMostly Cloudy
5:55 AM48.2 °F48.2 °F100 %29.95 in10.0 miCalmMostly Cloudy
6:15 AM48.2 °F48.2 °F100 %29.95 in10.0 miCalmMostly Cloudy
6:35 AM48.2 °F48.2 °F100 %29.95 in10.0 miCalmOvercast
6:55 AM48.2 °F48.2 °F100 %29.95 in10.0 miCalmOvercast
7:15 AM48.2 °F48.2 °F100 %29.95 in9.0 miCalmOvercast
7:35 AM50.0 °F44.6 °F82 %29.95 in10.0 miWSW (250°)4.6 mphMostly Cloudy
7:55 AM50.0 °F44.6 °F82 %29.95 in10.0 miCalmMostly Cloudy
8:15 AM48.2 °F44.6 °F87 %29.94 in10.0 miCalmMostly Cloudy
8:35 AM50.0 °F46.4 °F87 %29.94 in10.0 miSSW (210°)5.8 mphScattered Clouds
8:55 AM50.0 °F44.6 °F82 %29.95 in10.0 miSW (220°)4.6 mphPartly Cloudy
9:15 AM50.0 °F44.6 °F82 %29.95 in10.0 miCalmClear
9:35 AM51.8 °F42.8 °F71 %29.95 in10.0 miWNW (290°)4.6 mphClear
9:55 AM53.6 °F41.0 °F62 %29.96 in10.0 miNNW (330°)5.8 mphClear
10:15 AM53.6 °F41.0 °F62 %29.96 in10.0 miNNW (330°)9.2 mphClear
10:35 AM53.6 °F41.0 °F62 %29.96 in10.0 miNNW (340°)13.8 mph20.7 mphMostly Cloudy
10:55 AM51.8 °F41.0 °F67 %29.97 in10.0 miNNW (340°)13.8 mph17.3 mphOvercast
11:15 AM51.8 °F44.6 °F76 %29.97 in10.0 miNNW (340°)18.4 mph23.0 mphOvercast
11:35 AM51.8 °F44.6 °F76 %29.97 in10.0 miNNW (340°)16.1 mph23.0 mphMostly Cloudy
11:55 AM51.8 °F44.6 °F76 %29.98 in10.0 miNorth (10°)9.2 mph19.6 mphOvercast
12:15 PM51.8 °F42.8 °F71 %29.98 in10.0 miENE (70°)5.8 mphScattered Clouds
12:35 PM53.6 °F42.8 °F67 %29.97 in10.0 miNNE (30°)9.2 mphClear
12:55 PM50.0 °F42.8 °F76 %29.98 in10.0 miNNE (20°)5.8 mphPartly Cloudy
1:15 PM50.0 °F42.8 °F76 %29.97 in10.0 miNorth (10°)3.5 mphClear
1:35 PM50.0 °F42.8 °F76 %29.98 in10.0 miNorth (10°)3.5 mphClear
1:55 PM51.8 °F44.6 °F76 %29.98 in10.0 miNorth (350°)9.2 mphScattered Clouds
2:15 PM51.8 °F42.8 °F71 %29.98 in10.0 miNNW (340°)8.1 mphMostly Cloudy
2:35 PM53.6 °F44.6 °F72 %29.98 in10.0 miNNW (340°)10.4 mph16.1 mphOvercast
2:55 PM53.6 °F46.4 °F77 %29.99 in10.0 miNNW (340°)9.2 mphScattered Clouds
3:15 PM53.6 °F48.2 °F82 %29.99 in10.0 miNorth (350°)10.4 mph16.1 mphClear
3:35 PM53.6 °F46.4 °F77 %30.00 in10.0 miNNW (340°)9.2 mphClear
3:55 PM53.6 °F46.4 °F77 %30.00 in10.0 miNNW (340°)10.4 mphClear
4:15 PM53.6 °F46.4 °F77 %30.00 in10.0 miNorth (350°)9.2 mphClear
4:35 PM53.6 °F46.4 °F77 %30.00 in10.0 miNorth (350°)8.1 mphClear
4:55 PM53.6 °F46.4 °F77 %30.00 in10.0 miNNW (340°)4.6 mphClear
5:15 PM53.6 °F46.4 °F77 %30.01 in10.0 miNNW (330°)5.8 mphClear
5:35 PM53.6 °F46.4 °F77 %30.01 in10.0 miNorth (350°)6.9 mphClear
5:55 PM53.6 °F46.4 °F77 %30.01 in10.0 miNorth (350°)3.5 mphClear
6:15 PM51.8 °F46.4 °F82 %30.02 in10.0 miNorth (360°)4.6 mphClear
6:35 PM50.0 °F46.4 °F87 %30.02 in10.0 miCalmClear
6:55 PM48.2 °F46.4 °F93 %30.03 in10.0 miCalmClear
7:15 PM46.4 °F46.4 °F100 %30.03 in10.0 miCalmClear
7:35 PM46.4 °F46.4 °F100 %30.04 in10.0 miCalmClear
7:55 PM46.4 °F46.4 °F100 %30.04 in10.0 miCalmPartly Cloudy
8:15 PM48.2 °F46.4 °F93 %30.05 in10.0 miCalmScattered Clouds
8:35 PM48.2 °F46.4 °F93 %30.05 in10.0 miCalmScattered Clouds
8:55 PM46.4 °F46.4 °F100 %30.05 in10.0 miCalmClear
9:15 PM44.6 °F44.6 °F100 %30.06 in8.0 miCalmClear
9:35 PM44.6 °F44.6 °F100 %30.07 in7.0 miCalmClear
9:55 PM44.6 °F44.6 °F100 %30.08 in5.0 miCalmClear
10:15 PM44.6 °F44.6 °F100 %30.08 in7.0 miCalmClear
10:35 PM44.6 °F44.6 °F100 %30.08 in8.0 miCalmClear
10:55 PM44.6 °F44.6 °F100 %30.09 in10.0 miCalmClear
11:15 PM44.6 °F44.6 °F100 %30.09 in10.0 miCalmClear
11:35 PM44.6 °F44.6 °F100 %30.09 in10.0 miCalmClear
11:55 PM44.6 °F44.6 °F100 %30.09 in10.0 miCalmClear
Hourly data recorded from CZBB, located miles away from Steveston, British Columbia







STORIES FROM OUR PARTNERS